Погода в Вимперке

Чехия     49°03′31″N   13°46′57″E
темп.,
°C
ветер,
м/с
пор.,
м/с
влажн.,
%
обл.,
%
осадки,
мм/ч
давл.,
гПа
погр.,
м
19 апреля, пн
пн1923:000зюз1193100 0.0 102111
02:000зсз1194100 0.0 102110
05:000сз119798 0.0 102016
08:00+2с1499100 0.4 1019418
11:00+2с1399100 1.8 1020275
14:00+4с139373 2.2 1019390
17:00+5ссв2383100 0.5 1017822
20:00+3ссз1195100 0.9 101811
20 апреля, вт
вт2023:00+3с129993 0.3 101868
02:00+2сз119899 0.3 101838
05:00+2сз119799 0.0 101742
08:00+3сз1296100 0.1 1018104
11:00+7ссв237552 0.5 1016856
14:00+10св125864 1.6 10141444
17:00+8ссз127578 1.9 1014833
20:00+4зюз119375 3.4 101611
21 апреля, ср
ср2123:00+3зюз229390 0.1 101722
02:00+2юз22945 0.1 101724
05:00+2юз22955 0.0 101627
08:00+5юз23874 0.0 1016140
11:00+9з347195 0.6 10151305
14:00+9зюз347195 1.8 1014886
17:00+11з356022 0.8 10121331
20:00+5зсз228898 2.1 101425
22 апреля, чт
чт2223:00+4з118790 0.1 101511
02:00+3зсз119567 0.6 101610
05:00+2ссз119848 0.5 101612
08:00+3ссз1298100 0.8 1016550
11:00+3ссз1298100 4.3 1018246
14:00+5сз3566100 4.4 10171140
17:00+5сз4646100 0.0 10171802
20:00+1сз257590 0.1 1020121
23 апреля, пт
пт2323:00−2з25865 0.0 102294
02:00−3з22895 0.0 102325
05:00−3з11925 0.0 102418
08:00+1зсз26681 0.0 1024731
11:00+5сз34412 0.0 10241483
14:00+7с444297 0.0 10232070
17:00+7ссз454262 0.0 10231752
20:00+1св22867 0.0 102631